Regional Weather Roundup
Issued by NWS Newport/Morehead, NC

Current Version | Previous Version | Text Only | Print | Product List | Glossary On
Versions: 1 2 3 4 5 6 7 8 9 10 11 12 13 14 15 16 17 18 19 20 21 22 23 24 25 26 27 28 29 30 31 32 33 34 35 36 37 38 39 40 41 42 43 44 45 46 47 48 49 50
000 ASUS42 KMHX 291110 RWRMHX WEATHER ROUNDUP FOR EASTERN NORTH CAROLINA NATIONAL WEATHER SERVICE NEWPORT/MOREHEAD CITY NC 600 AM EST MON DEC 29 2014 NOTE: "FAIR" INDICATES FEW OR NO CLOUDS BELOW 12,000 FEET WITH NO SIGNIFICANT WEATHER AND/OR OBSTRUCTIONS TO VISIBILITY NCZ015>017-031-032-045>047-102-103-291200- NORTH COAST CITY SKY/WX TMP DP RH WIND PRES REMARKS EDENTON CLOUDY 55 55 98 NE8 30.06R ELIZABETH CITY CLOUDY 55 48 77 NE13 30.08R KITTY HAWK DRIZZLE 54 54 100 N6 30.06R MANTEO CLOUDY 54 54 100 NE9 30.06R $$ NCZ045>047-081-094-103-104-291200- CENTRAL COAST CITY SKY/WX TMP DP RH WIND PRES REMARKS FRISCO CLOUDY 57 57 100 VRB5 30.05R FOG SWANQUARTER N/A 59 N/A N/A N7 30.00S $$ NCZ095-097-098-100-101-291200- SOUTHERN COAST CITY SKY/WX TMP DP RH WIND PRES REMARKS BEAUFORT CLOUDY 59 58 96 CALM 30.04R CEDAR ISLAND N/A 55 N/A N/A NE3 30.09R JACKSONVILLE CLOUDY 59 58 96 E6 30.02S PINEY ISLAND CLOUDY 61 57 87 NE3 30.04R WILMINGTON MOCLDY 59 59 100 SE3 30.04R FOG $$ NCZ011>013-027>030-043-044-078>080-089-090>093-098-291200- COASTAL PLAIN CITY SKY/WX TMP DP RH WIND PRES REMARKS AHOSKIE RAIN 52 51 96 N5 30.09R CLINTON RAIN 58 58 100 N10 30.03S ELIZABETHTOWN CLOUDY 60 60 100 CALM 30.03R FOG GOLDSBORO RAIN 56 56 100 NE8 30.06R FOG GREENVILLE DRIZZLE 55 55 100 N9 30.08R HAVELOCK N/A 60 58 92 CALM 30.05R KENANSVILLE LGT RAIN 58 58 99 N6 30.04S KINSTON NOT AVBL NEW BERN CLOUDY 61 58 90 NE3 30.05S FOG RICHLANDS CLOUDY 59 57 94 NE6 30.03S VSB 3/4 ROCKY MOUNT LGT RAIN 54 52 93 N8 30.10R FOG WASHINGTON CLOUDY 57 55 95 N5 30.06R WHITEVILLE MOCLDY 60 59 96 CALM 30.01F FOG $$ AMZ130-135-150-152-154-156-158-170-250-252-270-ANZ085-086-088-633-658-670-291200- MARINE OBSERVATIONS STATION/POSITION TIME TEMP WIND PRES WAVE SWELL AIR SEA DIR/SP/G HT/PER HT/PER (UTC) (F) (DEG/KT/KT) (MB) (FT/S) (FT/S) CHESAPEAKE LIGHT 1000 49 30/ 19/ 21 1018.6 64 E VA BEACH 1100 53 53 30/ 16/ 17 1017.3 3/13 2/13 DUCK 1100 50 50 10/ 10/ 11 1017.4 2 E DUCK 1100 49 N/A 2/13 2/13 10 NE DUCK 1100 51 N/A 2/13 2/13 OREGON INLET 1100 55 53 360/ 6/ 8 1017.7 13E OREGON INLT 1100 63 N/A 2/13 2/13 HATTERAS CG 1100 55 60 350/ 5/ 6 1017.8 DIAMOND BUOY 1100 62 1017.3 2/13 17 S OCRACOKE NOT AVBL CAPE LOOKOUT 1000 60 40/ 5/ 7 1016.7 BEAUFORT LAB 1100 59 56 50/ 2/ 4 1016.2 30 SE NEW RIVER 1100 59 60 140/ 2/ 4 1017.5 3/13 2/13 5 SE WRIGHTSVLE NOT AVBL 225 S CAPE HAT 1049 74 74 230/ 14/ 16 1019.5 4/13 3/13 41 SE CHARLESTON 1100 72 72 240/ 14/ 16 1016.7 3/12 2/12 $$

USA.gov is the U.S. government's official web portal to all federal, state and local government web resources and services.